Location: Recife
(8.0585°S, 34.8848°W)
Time: 12:34:53
(UTC-03:00)

Vanguard 2 Rocket - Pass Details

Date: 23 April 2026
Orbit: 553 x 3286 km, 32.9° (Epoch: 7 May)

Event Time Altitude Azimuth Distance (km) Brightness Sun altitude
Rises 05:13:20 0° 241° (WSW) 3,417 - -2.9°
Exits shadow 05:13:44 - 239° (WSW) 3,331 9.2 -2.8°
Reaches altitude 10° 05:16:54 10° 216° (SW) 2,858 9.0 -2.0°
Maximum altitude 05:20:40 15° 183° (S) 2,936 9.4 -1.1°
Drops below altitude 10° 05:25:27 10° 152° (SSE) 3,831 10.3 0.1°
Sets 05:31:50 0° 132° (SE) 5,516 11.5 1.6°
